Wetterdaten: Dienstag, 19.01.2016
Datum Zeit Temp. A. Feuchte A. Luftdruck Regen Wind Richtung Richtung Sonnenschein ET UV Solar Taupunkt Windchill Windben Empfang
19.01.2016 00:00 -8,1 C 93 % 1018,2 hPa 0,0 l/m 6,5 km/h (2 Bft) O-NO 76 0 min 0,000 mm 0,0 UV-I 0 W/m -9,0 C -8,2 C 11,3 km/h (2 Bft) 99,19 %
19.01.2016 00:05 -8,0 C 93 % 1018,2 hPa 0,0 l/m 5,8 km/h (2 Bft) O-NO 69 0 min 0,000 mm 0,0 UV-I 0 W/m -8,9 C -8,0 C 9,7 km/h (2 Bft) 99,14 %
19.01.2016 00:10 -8,1 C 92 % 1018,2 hPa 0,0 l/m 4,9 km/h (1 Bft) O-NO 63 0 min 0,000 mm 0,0 UV-I 0 W/m -9,2 C -8,1 C 8,0 km/h (2 Bft) 99,13 %
19.01.2016 00:15 -8,1 C 92 % 1018,2 hPa 0,0 l/m 4,8 km/h (1 Bft) O-NO 65 0 min 0,000 mm 0,0 UV-I 0 W/m -9,2 C -8,1 C 8,0 km/h (2 Bft) 100,00 %
19.01.2016 00:20 -8,1 C 92 % 1018,2 hPa 0,0 l/m 5,5 km/h (1 Bft) O-NO 63 0 min 0,000 mm 0,0 UV-I 0 W/m -9,2 C -8,1 C 8,0 km/h (2 Bft) 99,11 %
19.01.2016 00:25 -8,2 C 92 % 1018,2 hPa 0,0 l/m 6,3 km/h (2 Bft) O-NO 78 0 min 0,000 mm 0,0 UV-I 0 W/m -9,3 C -8,2 C 8,0 km/h (2 Bft) 100,00 %
19.01.2016 00:30 -8,2 C 92 % 1018,1 hPa 0,0 l/m 6,5 km/h (2 Bft) O-NO 76 0 min 0,000 mm 0,0 UV-I 0 W/m -9,3 C -8,3 C 11,3 km/h (2 Bft) 95,50 %
19.01.2016 00:35 -8,2 C 92 % 1018,0 hPa 0,0 l/m 7,1 km/h (2 Bft) O-NO 67 0 min 0,000 mm 0,0 UV-I 0 W/m -9,3 C -9,1 C 11,3 km/h (2 Bft) 96,61 %
19.01.2016 00:40 -8,2 C 92 % 1018,0 hPa 0,0 l/m 5,7 km/h (1 Bft) O-NO 70 0 min 0,000 mm 0,0 UV-I 0 W/m -9,3 C -8,2 C 8,0 km/h (2 Bft) 95,76 %
19.01.2016 00:45 -8,3 C 92 % 1018,0 hPa 0,0 l/m 5,5 km/h (1 Bft) O 86 0 min 0,000 mm 0,0 UV-I 0 W/m -9,4 C -8,3 C 9,7 km/h (2 Bft) 96,75 %
19.01.2016 00:50 -8,3 C 92 % 1017,9 hPa 0,0 l/m 6,3 km/h (2 Bft) O 80 0 min 0,000 mm 0,0 UV-I 0 W/m -9,4 C -8,3 C 11,3 km/h (2 Bft) 96,61 %
19.01.2016 00:55 -8,3 C 92 % 1017,9 hPa 0,0 l/m 6,3 km/h (2 Bft) O-NO 74 0 min 0,000 mm 0,0 UV-I 0 W/m -9,4 C -8,3 C 11,3 km/h (2 Bft) 96,49 %
19.01.2016 01:00 -8,3 C 92 % 1017,8 hPa 0,0 l/m 7,0 km/h (2 Bft) O 81 0 min 0,000 mm 0,0 UV-I 0 W/m -9,4 C -9,1 C 11,3 km/h (2 Bft) 96,69 %
19.01.2016 01:05 -8,3 C 92 % 1017,9 hPa 0,0 l/m 5,8 km/h (2 Bft) O-NO 59 0 min 0,000 mm 0,0 UV-I 0 W/m -9,4 C -8,3 C 11,3 km/h (2 Bft) 97,39 %
19.01.2016 01:10 -8,3 C 91 % 1017,9 hPa 0,0 l/m 2,5 km/h (1 Bft) O-NO 74 0 min 0,000 mm 0,0 UV-I 0 W/m -9,5 C -8,3 C 4,8 km/h (1 Bft) 96,58 %
19.01.2016 01:15 -8,4 C 91 % 1018,0 hPa 0,0 l/m 2,5 km/h (1 Bft) O 91 0 min 0,000 mm 0,0 UV-I 0 W/m -9,6 C -8,4 C 4,8 km/h (1 Bft) 99,11 %
19.01.2016 01:20 -8,7 C 91 % 1017,9 hPa 0,0 l/m 1,7 km/h (1 Bft) O-SO 107 0 min 0,000 mm 0,0 UV-I 0 W/m -9,9 C -8,7 C 4,8 km/h (1 Bft) 99,21 %
19.01.2016 01:25 -8,8 C 91 % 1017,8 hPa 0,0 l/m 2,5 km/h (1 Bft) O-SO 116 0 min 0,000 mm 0,0 UV-I 0 W/m -10,0 C -8,8 C 4,8 km/h (1 Bft) 100,00 %
19.01.2016 01:30 -8,8 C 92 % 1017,9 hPa 0,0 l/m 2,1 km/h (1 Bft) O-SO 105 0 min 0,000 mm 0,0 UV-I 0 W/m -9,9 C -8,8 C 6,4 km/h (2 Bft) 99,15 %
19.01.2016 01:35 -8,8 C 92 % 1017,8 hPa 0,0 l/m 2,3 km/h (1 Bft) O-SO 114 0 min 0,000 mm 0,0 UV-I 0 W/m -9,9 C -8,8 C 4,8 km/h (1 Bft) 100,00 %
19.01.2016 01:40 -9,2 C 91 % 1017,9 hPa 0,0 l/m 2,0 km/h (1 Bft) O 99 0 min 0,000 mm 0,0 UV-I 0 W/m -10,4 C -9,2 C 3,2 km/h (1 Bft) 98,31 %
19.01.2016 01:45 -9,3 C 92 % 1017,8 hPa 0,0 l/m 2,1 km/h (1 Bft) O 99 0 min 0,000 mm 0,0 UV-I 0 W/m -10,4 C -9,3 C 3,2 km/h (1 Bft) 99,19 %
19.01.2016 01:50 -9,5 C 92 % 1017,8 hPa 0,0 l/m 2,1 km/h (1 Bft) O 88 0 min 0,000 mm 0,0 UV-I 0 W/m -10,6 C -9,5 C 4,8 km/h (1 Bft) 99,10 %
19.01.2016 01:55 -9,7 C 92 % 1017,7 hPa 0,0 l/m 2,7 km/h (1 Bft) O 80 0 min 0,000 mm 0,0 UV-I 0 W/m -10,7 C -9,7 C 6,4 km/h (2 Bft) 100,00 %
19.01.2016 02:00 -9,5 C 93 % 1017,7 hPa 0,0 l/m 2,4 km/h (1 Bft) O 90 0 min 0,000 mm 0,0 UV-I 0 W/m -10,4 C -9,5 C 4,8 km/h (1 Bft) 99,19 %
19.01.2016 02:05 -9,2 C 93 % 1017,7 hPa 0,0 l/m 4,0 km/h (1 Bft) O-NO 67 0 min 0,000 mm 0,0 UV-I 0 W/m -10,1 C -9,2 C 6,4 km/h (2 Bft) 99,12 %
19.01.2016 02:10 -8,9 C 93 % 1017,6 hPa 0,0 l/m 4,5 km/h (1 Bft) O-NO 64 0 min 0,000 mm 0,0 UV-I 0 W/m -9,8 C -8,9 C 6,4 km/h (2 Bft) 99,17 %
19.01.2016 02:15 -8,8 C 92 % 1017,6 hPa 0,0 l/m 3,7 km/h (1 Bft) O-NO 70 0 min 0,000 mm 0,0 UV-I 0 W/m -9,9 C -8,8 C 4,8 km/h (1 Bft) 100,00 %
19.01.2016 02:20 -8,9 C 92 % 1017,6 hPa 0,0 l/m 3,5 km/h (1 Bft) O-NO 70 0 min 0,000 mm 0,0 UV-I 0 W/m -10,0 C -8,9 C 4,8 km/h (1 Bft) 98,25 %
19.01.2016 02:25 -10,1 C 87 % 1017,7 hPa 0,0 l/m 1,4 km/h (1 Bft) O-NO 74 0 min 0,000 mm 0,0 UV-I 0 W/m -11,8 C -10,1 C 4,8 km/h (1 Bft) 99,15 %
19.01.2016 02:30 -10,9 C 89 % 1017,7 hPa 0,0 l/m 2,0 km/h (1 Bft) O-NO 74 0 min 0,000 mm 0,0 UV-I 0 W/m -12,3 C -10,9 C 4,8 km/h (1 Bft) 100,00 %
19.01.2016 02:35 -11,2 C 91 % 1017,7 hPa 0,0 l/m 0,7 km/h (0 Bft) O-NO 75 0 min 0,000 mm 0,0 UV-I 0 W/m -12,4 C -11,2 C 3,2 km/h (1 Bft) 99,13 %
19.01.2016 02:40 -11,5 C 91 % 1017,7 hPa 0,0 l/m 2,8 km/h (1 Bft) SO 130 0 min 0,000 mm 0,0 UV-I 0 W/m -12,7 C -11,5 C 4,8 km/h (1 Bft) 98,26 %
19.01.2016 02:45 -11,7 C 91 % 1017,7 hPa 0,0 l/m 5,2 km/h (1 Bft) S-SW 202 0 min 0,000 mm 0,0 UV-I 0 W/m -12,9 C -11,7 C 6,4 km/h (2 Bft) 97,50 %
19.01.2016 02:50 -11,7 C 92 % 1017,7 hPa 0,0 l/m 3,6 km/h (1 Bft) S 188 0 min 0,000 mm 0,0 UV-I 0 W/m -12,7 C -11,7 C 6,4 km/h (2 Bft) 97,25 %
19.01.2016 02:55 -11,3 C 93 % 1017,7 hPa 0,0 l/m 0,8 km/h (0 Bft) S 188 0 min 0,000 mm 0,0 UV-I 0 W/m -12,2 C -11,3 C 3,2 km/h (1 Bft) 97,62 %
19.01.2016 03:00 -11,1 C 93 % 1017,6 hPa 0,0 l/m 0,5 km/h (0 Bft) S 188 0 min 0,000 mm 0,0 UV-I 0 W/m -12,0 C -11,1 C 3,2 km/h (1 Bft) 97,32 %
19.01.2016 03:05 -11,0 C 93 % 1017,4 hPa 0,0 l/m 2,0 km/h (1 Bft) S 188 0 min 0,000 mm 0,0 UV-I 0 W/m -11,9 C -11,0 C 3,2 km/h (1 Bft) 95,97 %
19.01.2016 03:10 -10,9 C 93 % 1017,5 hPa 0,0 l/m 2,4 km/h (1 Bft) S 188 0 min 0,000 mm 0,0 UV-I 0 W/m -11,8 C -10,9 C 3,2 km/h (1 Bft) 96,19 %
19.01.2016 03:15 -11,0 C 92 % 1017,5 hPa 0,0 l/m 1,1 km/h (1 Bft) S 188 0 min 0,000 mm 0,0 UV-I 0 W/m -12,0 C -11,0 C 3,2 km/h (1 Bft) 96,77 %
19.01.2016 03:20 -11,4 C 91 % 1017,5 hPa 0,0 l/m 0,0 km/h (0 Bft) S 188 0 min 0,000 mm 0,0 UV-I 0 W/m -12,6 C -11,4 C 0,0 km/h (0 Bft) 98,26 %
19.01.2016 03:25 -11,5 C 92 % 1017,4 hPa 0,0 l/m 0,0 km/h (0 Bft) S 188 0 min 0,000 mm 0,0 UV-I 0 W/m -12,5 C -11,5 C 0,0 km/h (0 Bft) 98,37 %
19.01.2016 03:30 -11,8 C 91 % 1017,4 hPa 0,0 l/m 1,4 km/h (1 Bft) S 188 0 min 0,000 mm 0,0 UV-I 0 W/m -13,0 C -11,8 C 4,8 km/h (1 Bft) 98,21 %
19.01.2016 03:35 -12,1 C 91 % 1017,4 hPa 0,0 l/m 4,3 km/h (1 Bft) S-SO 167 0 min 0,000 mm 0,0 UV-I 0 W/m -13,3 C -12,1 C 6,4 km/h (2 Bft) 98,29 %
19.01.2016 03:40 -11,8 C 92 % 1017,4 hPa 0,0 l/m 2,4 km/h (1 Bft) S 175 0 min 0,000 mm 0,0 UV-I 0 W/m -12,8 C -11,8 C 6,4 km/h (2 Bft) 100,00 %
19.01.2016 03:45 -11,4 C 93 % 1017,3 hPa 0,0 l/m 1,0 km/h (0 Bft) S 169 0 min 0,000 mm 0,0 UV-I 0 W/m -12,3 C -11,4 C 3,2 km/h (1 Bft) 100,00 %
19.01.2016 03:50 -11,3 C 93 % 1017,3 hPa 0,0 l/m 1,4 km/h (1 Bft) S 169 0 min 0,000 mm 0,0 UV-I 0 W/m -12,2 C -11,3 C 3,2 km/h (1 Bft) 99,12 %
19.01.2016 03:55 -11,6 C 92 % 1017,3 hPa 0,0 l/m 0,4 km/h (0 Bft) S 169 0 min 0,000 mm 0,0 UV-I 0 W/m -12,6 C -11,6 C 1,6 km/h (1 Bft) 99,21 %
19.01.2016 04:00 -11,8 C 91 % 1017,4 hPa 0,0 l/m 1,0 km/h (0 Bft) S 169 0 min 0,000 mm 0,0 UV-I 0 W/m -13,0 C -11,8 C 3,2 km/h (1 Bft) 100,00 %
19.01.2016 04:05 -11,9 C 92 % 1017,4 hPa 0,0 l/m 1,0 km/h (0 Bft) S 169 0 min 0,000 mm 0,0 UV-I 0 W/m -12,9 C -11,9 C 3,2 km/h (1 Bft) 98,98 %
19.01.2016 04:10 -11,9 C 92 % 1017,4 hPa 0,0 l/m 1,1 km/h (1 Bft) S 169 0 min 0,000 mm 0,0 UV-I 0 W/m -12,9 C -11,9 C 1,6 km/h (1 Bft) 97,46 %
19.01.2016 04:15 -11,9 C 92 % 1017,3 hPa 0,0 l/m 1,2 km/h (1 Bft) S 169 0 min 0,000 mm 0,0 UV-I 0 W/m -12,9 C -11,9 C 1,6 km/h (1 Bft) 100,00 %
19.01.2016 04:20 -12,0 C 92 % 1017,4 hPa 0,0 l/m 1,1 km/h (1 Bft) S 169 0 min 0,000 mm 0,0 UV-I 0 W/m -13,0 C -12,0 C 3,2 km/h (1 Bft) 100,00 %
19.01.2016 04:25 -12,1 C 92 % 1017,5 hPa 0,0 l/m 0,4 km/h (0 Bft) S 169 0 min 0,000 mm 0,0 UV-I 0 W/m -13,1 C -12,1 C 1,6 km/h (1 Bft) 98,35 %
19.01.2016 04:30 -12,1 C 92 % 1017,5 hPa 0,0 l/m 0,5 km/h (0 Bft) S 169 0 min 0,000 mm 0,0 UV-I 0 W/m -13,1 C -12,1 C 1,6 km/h (1 Bft) 99,10 %
19.01.2016 04:35 -12,1 C 93 % 1017,5 hPa 0,0 l/m 1,1 km/h (1 Bft) S 169 0 min 0,000 mm 0,0 UV-I 0 W/m -13,0 C -12,1 C 1,6 km/h (1 Bft) 99,17 %
19.01.2016 04:40 -12,1 C 93 % 1017,4 hPa 0,0 l/m 1,7 km/h (1 Bft) S 169 0 min 0,000 mm 0,0 UV-I 0 W/m -13,0 C -12,1 C 3,2 km/h (1 Bft) 100,00 %
19.01.2016 04:45 -12,1 C 93 % 1017,4 hPa 0,0 l/m 2,6 km/h (1 Bft) S 169 0 min 0,000 mm 0,0 UV-I 0 W/m -13,0 C -12,1 C 3,2 km/h (1 Bft) 99,17 %
19.01.2016 04:50 -12,1 C 93 % 1017,4 hPa 0,0 l/m 2,8 km/h (1 Bft) S 169 0 min 0,000 mm 0,0 UV-I 0 W/m -13,0 C -12,1 C 3,2 km/h (1 Bft) 98,17 %
19.01.2016 04:55 -12,0 C 93 % 1017,4 hPa 0,0 l/m 1,9 km/h (1 Bft) S 169 0 min 0,000 mm 0,0 UV-I 0 W/m -12,9 C -12,0 C 3,2 km/h (1 Bft) 96,75 %
19.01.2016 05:00 -12,0 C 92 % 1017,4 hPa 0,0 l/m 1,8 km/h (1 Bft) S 169 0 min 0,000 mm 0,0 UV-I 0 W/m -13,0 C -12,0 C 3,2 km/h (1 Bft) 97,58 %
19.01.2016 05:05 -12,0 C 92 % 1017,5 hPa 0,0 l/m 1,3 km/h (1 Bft) S 169 0 min 0,000 mm 0,0 UV-I 0 W/m -13,0 C -12,0 C 3,2 km/h (1 Bft) 96,33 %
19.01.2016 05:10 -12,0 C 92 % 1017,5 hPa 0,0 l/m 1,7 km/h (1 Bft) S 169 0 min 0,000 mm 0,0 UV-I 0 W/m -13,0 C -12,0 C 3,2 km/h (1 Bft) 97,44 %
19.01.2016 05:15 -11,9 C 92 % 1017,5 hPa 0,0 l/m 2,2 km/h (1 Bft) S 169 0 min 0,000 mm 0,0 UV-I 0 W/m -12,9 C -11,9 C 6,4 km/h (2 Bft) 97,52 %
19.01.2016 05:20 -11,9 C 92 % 1017,4 hPa 0,0 l/m 2,6 km/h (1 Bft) S 169 0 min 0,000 mm 0,0 UV-I 0 W/m -12,9 C -11,9 C 6,4 km/h (2 Bft) 96,52 %
19.01.2016 05:25 -11,9 C 93 % 1017,4 hPa 0,0 l/m 1,2 km/h (1 Bft) S 169 0 min 0,000 mm 0,0 UV-I 0 W/m -12,8 C -11,9 C 3,2 km/h (1 Bft) 99,19 %
19.01.2016 05:30 -11,9 C 92 % 1017,4 hPa 0,0 l/m 2,7 km/h (1 Bft) S 180 0 min 0,000 mm 0,0 UV-I 0 W/m -12,9 C -11,9 C 4,8 km/h (1 Bft) 99,11 %
19.01.2016 05:35 -11,9 C 92 % 1017,5 hPa 0,0 l/m 3,0 km/h (1 Bft) S 181 0 min 0,000 mm 0,0 UV-I 0 W/m -12,9 C -11,9 C 4,8 km/h (1 Bft) 98,33 %
19.01.2016 05:40 -11,9 C 92 % 1017,4 hPa 0,0 l/m 4,5 km/h (1 Bft) S-SW 193 0 min 0,000 mm 0,0 UV-I 0 W/m -12,9 C -11,9 C 6,4 km/h (2 Bft) 100,00 %
19.01.2016 05:45 -11,8 C 92 % 1017,4 hPa 0,0 l/m 3,0 km/h (1 Bft) S 187 0 min 0,000 mm 0,0 UV-I 0 W/m -12,8 C -11,8 C 4,8 km/h (1 Bft) 100,00 %
19.01.2016 05:50 -11,7 C 93 % 1017,5 hPa 0,0 l/m 3,1 km/h (1 Bft) S 190 0 min 0,000 mm 0,0 UV-I 0 W/m -12,6 C -11,7 C 4,8 km/h (1 Bft) 99,12 %
19.01.2016 05:55 -11,6 C 93 % 1017,5 hPa 0,0 l/m 0,6 km/h (0 Bft) S 190 0 min 0,000 mm 0,0 UV-I 0 W/m -12,5 C -11,6 C 1,6 km/h (1 Bft) 99,11 %
19.01.2016 06:00 -11,6 C 93 % 1017,4 hPa 0,0 l/m 1,5 km/h (1 Bft) S 190 0 min 0,000 mm 0,0 UV-I 0 W/m -12,5 C -11,6 C 3,2 km/h (1 Bft) 100,00 %
19.01.2016 06:05 -11,6 C 93 % 1017,5 hPa 0,0 l/m 0,6 km/h (0 Bft) S 190 0 min 0,000 mm 0,0 UV-I 0 W/m -12,5 C -11,6 C 1,6 km/h (1 Bft) 100,00 %
19.01.2016 06:10 -11,6 C 92 % 1017,5 hPa 0,0 l/m 0,0 km/h (0 Bft) S 190 0 min 0,000 mm 0,0 UV-I 0 W/m -12,6 C -11,6 C 0,0 km/h (0 Bft) 100,00 %
19.01.2016 06:15 -11,7 C 92 % 1017,5 hPa 0,0 l/m 0,0 km/h (0 Bft) S 190 0 min 0,000 mm 0,0 UV-I 0 W/m -12,7 C -11,7 C 0,0 km/h (0 Bft) 100,00 %
19.01.2016 06:20 -11,8 C 92 % 1017,5 hPa 0,0 l/m 0,0 km/h (0 Bft) S 190 0 min 0,000 mm 0,0 UV-I 0 W/m -12,8 C -11,8 C 0,0 km/h (0 Bft) 99,19 %
19.01.2016 06:25 -11,8 C 92 % 1017,5 hPa 0,0 l/m 0,3 km/h (0 Bft) S 190 0 min 0,000 mm 0,0 UV-I 0 W/m -12,8 C -11,8 C 1,6 km/h (1 Bft) 100,00 %
19.01.2016 06:30 -11,8 C 92 % 1017,5 hPa 0,0 l/m 1,2 km/h (1 Bft) S 190 0 min 0,000 mm 0,0 UV-I 0 W/m -12,8 C -11,8 C 3,2 km/h (1 Bft) 100,00 %
19.01.2016 06:35 -11,8 C 92 % 1017,6 hPa 0,0 l/m 1,3 km/h (1 Bft) S 190 0 min 0,000 mm 0,0 UV-I 0 W/m -12,8 C -11,8 C 3,2 km/h (1 Bft) 100,00 %
19.01.2016 06:45 -11,9 C 91 % 1017,5 hPa 0,0 l/m 1,8 km/h (1 Bft) S 190 0 min 0,000 mm 0,0 UV-I 0 W/m -13,1 C -11,9 C 3,2 km/h (1 Bft) 99,37 %
19.01.2016 06:50 -11,9 C 91 % 1017,5 hPa 0,0 l/m 1,3 km/h (1 Bft) S 190 0 min 0,000 mm 0,0 UV-I 0 W/m -13,1 C -11,9 C 3,2 km/h (1 Bft) 98,21 %
19.01.2016 06:55 -11,9 C 92 % 1017,5 hPa 0,0 l/m 1,7 km/h (1 Bft) S 190 0 min 0,000 mm 0,0 UV-I 0 W/m -12,9 C -11,9 C 3,2 km/h (1 Bft) 96,75 %
19.01.2016 07:00 -11,9 C 92 % 1017,4 hPa 0,0 l/m 0,3 km/h (0 Bft) S 190 0 min 0,000 mm 0,0 UV-I 0 W/m -12,9 C -11,9 C 1,6 km/h (1 Bft) 96,69 %
19.01.2016 07:05 -12,0 C 91 % 1017,4 hPa 0,0 l/m 0,4 km/h (0 Bft) S 190 0 min 0,000 mm 0,0 UV-I 0 W/m -13,2 C -12,0 C 1,6 km/h (1 Bft) 97,44 %
19.01.2016 07:10 -12,2 C 91 % 1017,5 hPa 0,0 l/m 0,1 km/h (0 Bft) S 190 0 min 0,000 mm 0,0 UV-I 0 W/m -13,4 C -12,2 C 1,6 km/h (1 Bft) 97,25 %
19.01.2016 07:15 -12,2 C 91 % 1017,7 hPa 0,0 l/m 1,6 km/h (1 Bft) SW 215 0 min 0,000 mm 0,0 UV-I 0 W/m -13,4 C -12,2 C 4,8 km/h (1 Bft) 96,69 %
19.01.2016 07:20 -12,2 C 91 % 1017,7 hPa 0,0 l/m 0,8 km/h (0 Bft) SW 215 0 min 0,000 mm 0,0 UV-I 0 W/m -13,4 C -12,2 C 3,2 km/h (1 Bft) 98,33 %
19.01.2016 07:25 -12,2 C 91 % 1017,7 hPa 0,0 l/m 0,3 km/h (0 Bft) SW 215 0 min 0,000 mm 0,0 UV-I 0 W/m -13,4 C -12,2 C 1,6 km/h (1 Bft) 98,17 %
19.01.2016 07:30 -12,2 C 91 % 1017,7 hPa 0,0 l/m 0,5 km/h (0 Bft) SW 215 0 min 0,000 mm 0,0 UV-I 0 W/m -13,4 C -12,2 C 1,6 km/h (1 Bft) 99,17 %
19.01.2016 07:35 -12,1 C 91 % 1017,6 hPa 0,0 l/m 0,2 km/h (0 Bft) SW 215 0 min 0,000 mm 0,0 UV-I 0 W/m -13,3 C -12,1 C 1,6 km/h (1 Bft) 99,12 %
19.01.2016 07:40 -12,1 C 91 % 1017,9 hPa 0,0 l/m 2,3 km/h (1 Bft) SW 224 0 min 0,000 mm 0,0 UV-I 0 W/m -13,3 C -12,1 C 4,8 km/h (1 Bft) 100,00 %
19.01.2016 07:45 -12,1 C 91 % 1017,8 hPa 0,0 l/m 0,7 km/h (0 Bft) SW 224 0 min 0,000 mm 0,0 UV-I 0 W/m -13,3 C -12,1 C 1,6 km/h (1 Bft) 98,31 %
19.01.2016 07:50 -12,2 C 91 % 1017,8 hPa 0,0 l/m 0,8 km/h (0 Bft) S 186 0 min 0,000 mm 0,0 UV-I 2 W/m -13,4 C -12,2 C 4,8 km/h (1 Bft) 99,17 %
19.01.2016 07:55 -12,2 C 91 % 1017,8 hPa 0,0 l/m 3,1 km/h (1 Bft) S-SW 209 0 min 0,000 mm 0,0 UV-I 5 W/m -13,4 C -12,2 C 6,4 km/h (2 Bft) 98,36 %
19.01.2016 08:00 -12,1 C 91 % 1017,6 hPa 0,0 l/m 0,3 km/h (0 Bft) S-SW 209 0 min 0,000 mm 0,0 UV-I 8 W/m -13,3 C -12,1 C 1,6 km/h (1 Bft) 97,30 %
19.01.2016 08:05 -12,0 C 92 % 1017,6 hPa 0,0 l/m 1,5 km/h (1 Bft) O-SO 116 0 min 0,000 mm 0,0 UV-I 12 W/m -13,0 C -12,0 C 4,8 km/h (1 Bft) 98,26 %
19.01.2016 08:10 -11,8 C 92 % 1017,5 hPa 0,0 l/m 3,0 km/h (1 Bft) NO 51 0 min 0,000 mm 0,0 UV-I 15 W/m -12,8 C -11,8 C 4,8 km/h (1 Bft) 99,19 %
19.01.2016 08:15 -11,8 C 91 % 1018,0 hPa 0,0 l/m 1,3 km/h (1 Bft) W 281 0 min 0,000 mm 0,0 UV-I 29 W/m -13,0 C -11,8 C 3,2 km/h (1 Bft) 98,25 %
19.01.2016 08:20 -11,7 C 92 % 1017,8 hPa 0,0 l/m 0,4 km/h (0 Bft) W 281 5 min 0,000 mm 0,0 UV-I 38 W/m -12,7 C -11,7 C 1,6 km/h (1 Bft) 99,11 %
19.01.2016 08:25 -11,6 C 92 % 1017,9 hPa 0,0 l/m 1,7 km/h (1 Bft) S-SW 207 0 min 0,000 mm 0,0 UV-I 41 W/m -12,6 C -11,6 C 4,8 km/h (1 Bft) 99,19 %
19.01.2016 08:30 -11,4 C 92 % 1018,0 hPa 0,0 l/m 0,0 km/h (0 Bft) S-SW 207 0 min 0,000 mm 0,0 UV-I 45 W/m -12,4 C -11,4 C 1,6 km/h (1 Bft) 100,00 %
19.01.2016 08:35 -11,3 C 92 % 1017,8 hPa 0,0 l/m 0,0 km/h (0 Bft) S-SW 207 0 min 0,000 mm 0,0 UV-I 54 W/m -12,3 C -11,3 C 0,0 km/h (0 Bft) 99,17 %
19.01.2016 08:40 -11,1 C 92 % 1017,8 hPa 0,0 l/m 1,3 km/h (1 Bft) S-SW 207 0 min 0,000 mm 0,0 UV-I 54 W/m -12,1 C -11,1 C 3,2 km/h (1 Bft) 97,37 %
19.01.2016 08:45 -10,8 C 92 % 1017,9 hPa 0,0 l/m 1,1 km/h (1 Bft) SO 129 0 min 0,000 mm 0,0 UV-I 64 W/m -11,8 C -10,8 C 3,2 km/h (1 Bft) 97,64 %
19.01.2016 08:50 -10,7 C 92 % 1017,8 hPa 0,0 l/m 0,0 km/h (0 Bft) SO 129 0 min 0,000 mm 0,0 UV-I 69 W/m -11,7 C -10,7 C 0,0 km/h (0 Bft) 96,58 %
19.01.2016 08:55 -10,7 C 92 % 1018,0 hPa 0,0 l/m 0,3 km/h (0 Bft) O-NO 71 0 min 0,000 mm 0,0 UV-I 69 W/m -11,7 C -10,7 C 3,2 km/h (1 Bft) 98,26 %
19.01.2016 09:00 -10,6 C 92 % 1017,9 hPa 0,0 l/m 0,0 km/h (0 Bft) O-NO 71 0 min 0,000 mm 0,0 UV-I 67 W/m -11,6 C -10,6 C 0,0 km/h (0 Bft) 97,46 %
19.01.2016 09:05 -10,4 C 92 % 1017,9 hPa 0,0 l/m 0,0 km/h (0 Bft) O-NO 71 0 min 0,000 mm 0,0 UV-I 71 W/m -11,4 C -10,4 C 1,6 km/h (1 Bft) 97,32 %
19.01.2016 09:10 -10,2 C 92 % 1017,9 hPa 0,0 l/m 1,7 km/h (1 Bft) NO 40 0 min 0,000 mm 0,0 UV-I 70 W/m -11,2 C -10,2 C 3,2 km/h (1 Bft) 96,58 %
19.01.2016 09:15 -10,0 C 92 % 1017,8 hPa 0,0 l/m 1,1 km/h (1 Bft) NO 38 0 min 0,000 mm 0,0 UV-I 68 W/m -11,0 C -10,0 C 4,8 km/h (1 Bft) 97,52 %
19.01.2016 09:20 -9,9 C 92 % 1018,0 hPa 0,0 l/m 1,4 km/h (1 Bft) NO 39 0 min 0,000 mm 0,0 UV-I 73 W/m -10,9 C -9,9 C 3,2 km/h (1 Bft) 98,33 %
19.01.2016 09:25 -9,8 C 92 % 1018,0 hPa 0,0 l/m 1,4 km/h (1 Bft) N-NO 21 0 min 0,000 mm 0,0 UV-I 84 W/m -10,8 C -9,8 C 4,8 km/h (1 Bft) 97,32 %
19.01.2016 09:30 -9,8 C 92 % 1018,2 hPa 0,0 l/m 1,1 km/h (1 Bft) N-NO 22 0 min 0,000 mm 0,0 UV-I 95 W/m -10,8 C -9,8 C 4,8 km/h (1 Bft) 100,00 %
19.01.2016 09:35 -9,7 C 92 % 1018,1 hPa 0,0 l/m 3,0 km/h (1 Bft) N-NO 13 0 min 0,000 mm 0,0 UV-I 115 W/m -10,7 C -9,7 C 8,0 km/h (2 Bft) 97,44 %
19.01.2016 09:40 -9,6 C 92 % 1018,1 hPa 0,0 l/m 0,7 km/h (0 Bft) N-NO 33 0 min 0,000 mm 0,0 UV-I 122 W/m -10,6 C -9,6 C 3,2 km/h (1 Bft) 100,00 %
19.01.2016 09:45 -9,4 C 92 % 1018,1 hPa 0,0 l/m 3,3 km/h (1 Bft) N-NO 22 0 min 0,000 mm 0,0 UV-I 121 W/m -10,5 C -9,4 C 6,4 km/h (2 Bft) 99,15 %
19.01.2016 09:50 -9,2 C 93 % 1018,2 hPa 0,0 l/m 2,5 km/h (1 Bft) O 91 0 min 0,000 mm 0,0 UV-I 118 W/m -10,1 C -9,2 C 4,8 km/h (1 Bft) 99,06 %
19.01.2016 09:55 -9,2 C 92 % 1018,2 hPa 0,0 l/m 4,4 km/h (1 Bft) NO 36 0 min 0,000 mm 0,0 UV-I 99 W/m -10,3 C -9,2 C 8,0 km/h (2 Bft) 99,15 %
19.01.2016 10:00 -9,2 C 92 % 1018,3 hPa 0,0 l/m 3,5 km/h (1 Bft) O-NO 59 0 min 0,025 mm 0,0 UV-I 85 W/m -10,3 C -9,2 C 6,4 km/h (2 Bft) 99,17 %
19.01.2016 10:05 -9,3 C 92 % 1018,1 hPa 0,0 l/m 4,7 km/h (1 Bft) NO 47 0 min 0,000 mm 0,0 UV-I 87 W/m -10,4 C -9,3 C 6,4 km/h (2 Bft) 99,15 %
19.01.2016 10:10 -9,3 C 92 % 1018,2 hPa 0,0 l/m 3,9 km/h (1 Bft) O-NO 59 0 min 0,000 mm 0,0 UV-I 79 W/m -10,4 C -9,3 C 6,4 km/h (2 Bft) 100,00 %
19.01.2016 10:15 -9,2 C 92 % 1018,3 hPa 0,0 l/m 3,8 km/h (1 Bft) NO 42 0 min 0,000 mm 0,0 UV-I 81 W/m -10,3 C -9,2 C 4,8 km/h (1 Bft) 98,29 %
19.01.2016 10:20 -9,1 C 93 % 1018,3 hPa 0,0 l/m 2,8 km/h (1 Bft) NO 42 0 min 0,000 mm 0,0 UV-I 139 W/m -10,0 C -9,1 C 4,8 km/h (1 Bft) 100,00 %
19.01.2016 10:25 -8,9 C 93 % 1018,2 hPa 0,0 l/m 3,6 km/h (1 Bft) NO 39 0 min 0,000 mm 0,0 UV-I 158 W/m -9,8 C -8,9 C 4,8 km/h (1 Bft) 97,25 %
19.01.2016 10:30 -8,8 C 92 % 1018,2 hPa 0,0 l/m 5,3 km/h (1 Bft) NO 50 0 min 0,000 mm 0,0 UV-I 170 W/m -9,9 C -8,8 C 8,0 km/h (2 Bft) 95,83 %
19.01.2016 10:35 -8,8 C 92 % 1018,2 hPa 0,0 l/m 5,3 km/h (1 Bft) NO 40 5 min 0,000 mm 0,0 UV-I 183 W/m -9,9 C -8,8 C 8,0 km/h (2 Bft) 97,52 %
19.01.2016 10:40 -8,7 C 93 % 1018,2 hPa 0,0 l/m 6,0 km/h (2 Bft) O-NO 66 0 min 0,000 mm 0,0 UV-I 152 W/m -9,6 C -8,7 C 9,7 km/h (2 Bft) 95,73 %
19.01.2016 10:45 -8,7 C 93 % 1018,3 hPa 0,0 l/m 4,8 km/h (1 Bft) N-NO 26 0 min 0,000 mm 0,0 UV-I 118 W/m -9,6 C -8,7 C 9,7 km/h (2 Bft) 97,46 %
19.01.2016 10:50 -8,6 C 93 % 1018,3 hPa 0,0 l/m 5,7 km/h (1 Bft) N-NO 30 5 min 0,000 mm 0,0 UV-I 183 W/m -9,5 C -8,6 C 9,7 km/h (2 Bft) 96,61 %
19.01.2016 10:55 -8,6 C 93 % 1018,4 hPa 0,0 l/m 6,4 km/h (2 Bft) NO 55 0 min 0,000 mm 0,0 UV-I 148 W/m -9,5 C -8,5 C 9,7 km/h (2 Bft) 95,83 %
19.01.2016 11:00 -8,6 C 92 % 1018,4 hPa 0,0 l/m 7,7 km/h (2 Bft) O-NO 61 0 min 0,026 mm 0,0 UV-I 149 W/m -9,7 C -10,3 C 9,7 km/h (2 Bft) 95,76 %
19.01.2016 11:05 -8,4 C 93 % 1018,3 hPa 0,0 l/m 6,8 km/h (2 Bft) O-NO 57 0 min 0,000 mm 0,0 UV-I 170 W/m -9,3 C -8,9 C 9,7 km/h (2 Bft) 98,17 %
19.01.2016 11:10 -8,3 C 93 % 1018,3 hPa 0,0 l/m 6,4 km/h (2 Bft) NO 44 0 min 0,000 mm 0,0 UV-I 162 W/m -9,2 C -8,2 C 9,7 km/h (2 Bft) 98,36 %
19.01.2016 11:15 -8,3 C 93 % 1018,4 hPa 0,0 l/m 5,7 km/h (1 Bft) NO 55 0 min 0,000 mm 0,0 UV-I 143 W/m -9,2 C -8,3 C 8,0 km/h (2 Bft) 99,15 %
19.01.2016 11:20 -8,2 C 93 % 1018,3 hPa 0,0 l/m 5,2 km/h (1 Bft) N-NO 21 0 min 0,000 mm 0,0 UV-I 150 W/m -9,1 C -8,2 C 8,0 km/h (2 Bft) 98,32 %
19.01.2016 11:25 -8,2 C 93 % 1018,4 hPa 0,0 l/m 5,5 km/h (1 Bft) NO 48 0 min 0,000 mm 0,0 UV-I 130 W/m -9,1 C -8,2 C 9,7 km/h (2 Bft) 99,06 %
19.01.2016 11:30 -8,0 C 93 % 1018,4 hPa 0,0 l/m 5,1 km/h (1 Bft) NO 40 0 min 0,000 mm 0,0 UV-I 130 W/m -8,9 C -8,0 C 8,0 km/h (2 Bft) 98,32 %
19.01.2016 11:35 -8,0 C 93 % 1018,5 hPa 0,0 l/m 4,1 km/h (1 Bft) NO 39 0 min 0,000 mm 0,0 UV-I 144 W/m -8,9 C -8,0 C 6,4 km/h (2 Bft) 99,17 %
19.01.2016 11:40 -7,9 C 93 % 1018,7 hPa 0,0 l/m 2,7 km/h (1 Bft) N-NO 16 0 min 0,000 mm 0,0 UV-I 146 W/m -8,8 C -7,9 C 6,4 km/h (2 Bft) 100,00 %
19.01.2016 11:45 -7,9 C 93 % 1018,6 hPa 0,0 l/m 3,2 km/h (1 Bft) NO 53 0 min 0,000 mm 0,0 UV-I 115 W/m -8,8 C -7,9 C 4,8 km/h (1 Bft) 100,00 %
19.01.2016 11:50 -7,8 C 93 % 1018,5 hPa 0,0 l/m 4,9 km/h (1 Bft) NO 53 0 min 0,000 mm 0,0 UV-I 116 W/m -8,7 C -7,8 C 8,0 km/h (2 Bft) 98,31 %
19.01.2016 11:55 -7,8 C 93 % 1018,4 hPa 0,0 l/m 4,4 km/h (1 Bft) NO 41 0 min 0,000 mm 0,0 UV-I 116 W/m -8,7 C -7,8 C 8,0 km/h (2 Bft) 99,17 %
19.01.2016 12:00 -7,8 C 92 % 1018,2 hPa 0,0 l/m 6,4 km/h (2 Bft) NO 42 0 min 0,025 mm 0,0 UV-I 129 W/m -8,9 C -7,7 C 9,7 km/h (2 Bft) 97,44 %
19.01.2016 12:05 -7,8 C 92 % 1018,2 hPa 0,0 l/m 6,3 km/h (2 Bft) O-NO 63 0 min 0,000 mm 0,0 UV-I 136 W/m -8,9 C -7,8 C 11,3 km/h (2 Bft) 99,15 %
19.01.2016 12:10 -7,7 C 92 % 1018,2 hPa 0,0 l/m 6,4 km/h (2 Bft) O-NO 59 0 min 0,000 mm 0,4 UV-I 186 W/m -8,8 C -7,6 C 11,3 km/h (2 Bft) 100,00 %
19.01.2016 12:15 -7,6 C 92 % 1018,1 hPa 0,0 l/m 5,9 km/h (2 Bft) NO 56 0 min 0,000 mm 0,5 UV-I 185 W/m -8,7 C -7,6 C 9,7 km/h (2 Bft) 99,15 %
19.01.2016 12:20 -7,6 C 91 % 1018,2 hPa 0,0 l/m 7,7 km/h (2 Bft) O-NO 59 0 min 0,000 mm 0,5 UV-I 192 W/m -8,8 C -9,3 C 14,5 km/h (3 Bft) 96,61 %
19.01.2016 12:25 -7,4 C 91 % 1018,1 hPa 0,0 l/m 7,7 km/h (2 Bft) NO 49 0 min 0,000 mm 0,5 UV-I 176 W/m -8,6 C -9,1 C 12,9 km/h (3 Bft) 97,50 %
19.01.2016 12:30 -7,4 C 90 % 1018,3 hPa 0,0 l/m 7,3 km/h (2 Bft) O-NO 66 0 min 0,000 mm 0,0 UV-I 122 W/m -8,8 C -8,5 C 12,9 km/h (3 Bft) 97,46 %
19.01.2016 12:35 -7,5 C 89 % 1018,2 hPa 0,0 l/m 6,0 km/h (2 Bft) NO 54 0 min 0,000 mm 0,0 UV-I 98 W/m -9,0 C -7,5 C 9,7 km/h (2 Bft) 96,61 %
19.01.2016 12:40 -7,4 C 89 % 1018,3 hPa 0,0 l/m 4,0 km/h (1 Bft) NO 34 0 min 0,000 mm 0,0 UV-I 96 W/m -8,9 C -7,4 C 6,4 km/h (2 Bft) 97,14 %
19.01.2016 12:45 -7,2 C 89 % 1018,2 hPa 0,0 l/m 4,5 km/h (1 Bft) O-NO 72 0 min 0,000 mm 0,0 UV-I 114 W/m -8,7 C -7,2 C 8,0 km/h (2 Bft) 98,31 %
19.01.2016 12:50 -7,1 C 88 % 1018,0 hPa 0,0 l/m 6,9 km/h (2 Bft) O-NO 71 0 min 0,000 mm 0,0 UV-I 131 W/m -8,7 C -7,7 C 14,5 km/h (3 Bft) 98,35 %
19.01.2016 12:55 -7,1 C 87 % 1018,0 hPa 0,0 l/m 8,1 km/h (2 Bft) O-NO 71 0 min 0,000 mm 0,0 UV-I 136 W/m -8,9 C -9,2 C 14,5 km/h (3 Bft) 97,44 %
19.01.2016 13:00 -7,1 C 87 % 1018,1 hPa 0,0 l/m 7,6 km/h (2 Bft) NO 55 0 min 0,026 mm 0,0 UV-I 124 W/m -8,9 C -8,6 C 12,9 km/h (3 Bft) 99,15 %
19.01.2016 13:05 -7,1 C 86 % 1018,0 hPa 0,0 l/m 6,8 km/h (2 Bft) NO 55 0 min 0,000 mm 0,0 UV-I 122 W/m -9,0 C -7,6 C 12,9 km/h (3 Bft) 99,15 %
19.01.2016 13:10 -7,1 C 87 % 1018,0 hPa 0,0 l/m 5,6 km/h (1 Bft) NO 34 0 min 0,000 mm 0,0 UV-I 122 W/m -8,9 C -7,1 C 9,7 km/h (2 Bft) 99,13 %
19.01.2016 13:15 -7,1 C 86 % 1018,0 hPa 0,0 l/m 5,7 km/h (1 Bft) O-NO 67 0 min 0,000 mm 0,0 UV-I 114 W/m -9,0 C -7,1 C 9,7 km/h (2 Bft) 100,00 %
19.01.2016 13:20 -7,0 C 86 % 1017,9 hPa 0,0 l/m 6,2 km/h (2 Bft) O 85 0 min 0,000 mm 0,0 UV-I 107 W/m -8,9 C -7,0 C 11,3 km/h (2 Bft) 99,15 %
19.01.2016 13:25 -7,0 C 86 % 1017,9 hPa 0,0 l/m 5,6 km/h (1 Bft) NO 53 0 min 0,000 mm 0,0 UV-I 93 W/m -8,9 C -7,0 C 9,7 km/h (2 Bft) 100,00 %
19.01.2016 13:30 -7,0 C 86 % 1017,8 hPa 0,0 l/m 4,6 km/h (1 Bft) O-NO 78 0 min 0,000 mm 0,0 UV-I 91 W/m -8,9 C -7,0 C 6,4 km/h (2 Bft) 100,00 %
19.01.2016 13:35 -6,9 C 87 % 1017,7 hPa 0,0 l/m 5,0 km/h (1 Bft) O-NO 72 0 min 0,000 mm 0,0 UV-I 89 W/m -8,7 C -6,9 C 8,0 km/h (2 Bft) 99,08 %
19.01.2016 13:40 -7,0 C 86 % 1017,7 hPa 0,0 l/m 5,6 km/h (1 Bft) O 81 0 min 0,000 mm 0,0 UV-I 93 W/m -8,9 C -7,0 C 8,0 km/h (2 Bft) 99,17 %
19.01.2016 13:45 -6,9 C 86 % 1017,6 hPa 0,0 l/m 3,4 km/h (1 Bft) O-SO 105 0 min 0,000 mm 0,0 UV-I 89 W/m -8,8 C -6,9 C 4,8 km/h (1 Bft) 98,37 %
19.01.2016 13:50 -6,8 C 86 % 1017,6 hPa 0,0 l/m 3,0 km/h (1 Bft) S-SO 162 0 min 0,000 mm 0,0 UV-I 96 W/m -8,7 C -6,8 C 6,4 km/h (2 Bft) 98,31 %
19.01.2016 13:55 -6,8 C 86 % 1017,6 hPa 0,0 l/m 2,2 km/h (1 Bft) O-SO 119 0 min 0,000 mm 0,0 UV-I 91 W/m -8,7 C -6,8 C 6,4 km/h (2 Bft) 95,37 %
19.01.2016 14:00 -6,8 C 86 % 1017,5 hPa 0,0 l/m 1,8 km/h (1 Bft) SO 126 0 min 0,025 mm 0,0 UV-I 86 W/m -8,7 C -6,8 C 4,8 km/h (1 Bft) 99,15 %
19.01.2016 14:05 -6,8 C 86 % 1017,4 hPa 0,0 l/m 2,5 km/h (1 Bft) O-SO 112 0 min 0,000 mm 0,0 UV-I 78 W/m -8,7 C -6,8 C 4,8 km/h (1 Bft) 98,31 %
19.01.2016 14:10 -6,6 C 85 % 1017,4 hPa 0,0 l/m 1,8 km/h (1 Bft) SO 125 0 min 0,000 mm 0,0 UV-I 77 W/m -8,7 C -6,6 C 4,8 km/h (1 Bft) 97,52 %
19.01.2016 14:15 -6,6 C 85 % 1017,5 hPa 0,0 l/m 3,1 km/h (1 Bft) S-SO 149 0 min 0,000 mm 0,0 UV-I 77 W/m -8,7 C -6,6 C 6,4 km/h (2 Bft) 95,83 %
19.01.2016 14:20 -6,7 C 84 % 1017,4 hPa 0,0 l/m 2,0 km/h (1 Bft) S-SO 148 0 min 0,000 mm 0,0 UV-I 64 W/m -8,9 C -6,7 C 4,8 km/h (1 Bft) 96,61 %
19.01.2016 14:25 -6,7 C 85 % 1017,5 hPa 0,0 l/m 2,2 km/h (1 Bft) SO 139 0 min 0,000 mm 0,0 UV-I 63 W/m -8,8 C -6,7 C 6,4 km/h (2 Bft) 98,15 %
19.01.2016 14:30 -6,7 C 84 % 1017,5 hPa 0,0 l/m 2,8 km/h (1 Bft) SO 132 0 min 0,000 mm 0,0 UV-I 66 W/m -8,9 C -6,7 C 6,4 km/h (2 Bft) 97,46 %
19.01.2016 14:35 -6,7 C 84 % 1017,4 hPa 0,0 l/m 2,4 km/h (1 Bft) S-SO 160 0 min 0,000 mm 0,0 UV-I 82 W/m -8,9 C -6,7 C 8,0 km/h (2 Bft) 94,07 %
19.01.2016 14:40 -6,7 C 84 % 1017,3 hPa 0,0 l/m 1,4 km/h (1 Bft) S-SO 159 0 min 0,000 mm 0,0 UV-I 98 W/m -8,9 C -6,7 C 6,4 km/h (2 Bft) 97,44 %
19.01.2016 14:45 -6,6 C 84 % 1017,3 hPa 0,0 l/m 0,9 km/h (0 Bft) S-SO 159 0 min 0,000 mm 0,0 UV-I 92 W/m -8,8 C -6,6 C 3,2 km/h (1 Bft) 98,31 %
19.01.2016 14:50 -6,5 C 84 % 1017,2 hPa 0,0 l/m 1,4 km/h (1 Bft) S-SO 159 0 min 0,000 mm 0,0 UV-I 83 W/m -8,7 C -6,5 C 3,2 km/h (1 Bft) 99,15 %
19.01.2016 14:55 -6,4 C 84 % 1017,3 hPa 0,0 l/m 2,4 km/h (1 Bft) SO 140 0 min 0,000 mm 0,0 UV-I 74 W/m -8,6 C -6,4 C 6,4 km/h (2 Bft) 99,19 %
19.01.2016 15:00 -6,4 C 84 % 1017,4 hPa 0,0 l/m 0,1 km/h (0 Bft) SO 140 0 min 0,025 mm 0,0 UV-I 72 W/m -8,6 C -6,4 C 1,6 km/h (1 Bft) 99,06 %
19.01.2016 15:05 -6,3 C 85 % 1017,5 hPa 0,0 l/m 1,0 km/h (0 Bft) O-SO 119 0 min 0,000 mm 0,0 UV-I 68 W/m -8,4 C -6,3 C 3,2 km/h (1 Bft) 100,00 %
19.01.2016 15:10 -6,3 C 85 % 1017,5 hPa 0,0 l/m 1,1 km/h (1 Bft) NO 41 0 min 0,000 mm 0,0 UV-I 63 W/m -8,4 C -6,3 C 4,8 km/h (1 Bft) 100,00 %
19.01.2016 15:15 -6,4 C 86 % 1017,3 hPa 0,0 l/m 3,6 km/h (1 Bft) NO 55 0 min 0,000 mm 0,0 UV-I 51 W/m -8,3 C -6,4 C 8,0 km/h (2 Bft) 99,15 %
19.01.2016 15:20 -6,4 C 85 % 1017,3 hPa 0,0 l/m 3,6 km/h (1 Bft) N-NO 32 0 min 0,000 mm 0,0 UV-I 48 W/m -8,5 C -6,4 C 6,4 km/h (2 Bft) 94,87 %
19.01.2016 15:25 -6,6 C 84 % 1017,2 hPa 0,0 l/m 1,6 km/h (1 Bft) N-NO 32 0 min 0,000 mm 0,0 UV-I 41 W/m -8,8 C -6,6 C 3,2 km/h (1 Bft) 100,00 %
19.01.2016 15:30 -6,5 C 85 % 1017,2 hPa 0,0 l/m 1,2 km/h (1 Bft) N-NO 32 0 min 0,000 mm 0,0 UV-I 34 W/m -8,6 C -6,5 C 3,2 km/h (1 Bft) 100,00 %
19.01.2016 15:35 -6,5 C 85 % 1017,1 hPa 0,0 l/m 2,3 km/h (1 Bft) N-NO 32 0 min 0,000 mm 0,0 UV-I 31 W/m -8,6 C -6,5 C 4,8 km/h (1 Bft) 100,00 %
19.01.2016 15:40 -6,5 C 85 % 1017,3 hPa 0,0 l/m 1,9 km/h (1 Bft) N-NO 32 0 min 0,000 mm 0,0 UV-I 25 W/m -8,6 C -6,5 C 4,8 km/h (1 Bft) 99,08 %
19.01.2016 15:45 -6,4 C 86 % 1017,4 hPa 0,0 l/m 1,7 km/h (1 Bft) N-NO 31 0 min 0,000 mm 0,0 UV-I 22 W/m -8,3 C -6,4 C 4,8 km/h (1 Bft) 98,31 %
19.01.2016 15:50 -6,4 C 86 % 1017,5 hPa 0,0 l/m 0,1 km/h (0 Bft) N-NO 31 0 min 0,000 mm 0,0 UV-I 23 W/m -8,3 C -6,4 C 1,6 km/h (1 Bft) 98,29 %
19.01.2016 15:55 -6,4 C 86 % 1017,5 hPa 0,0 l/m 1,6 km/h (1 Bft) N-NO 31 0 min 0,000 mm 0,0 UV-I 21 W/m -8,3 C -6,4 C 3,2 km/h (1 Bft) 99,19 %
19.01.2016 16:00 -6,3 C 86 % 1017,4 hPa 0,0 l/m 1,9 km/h (1 Bft) N-NO 31 0 min 0,000 mm 0,0 UV-I 19 W/m -8,2 C -6,3 C 4,8 km/h (1 Bft) 99,07 %
19.01.2016 16:05 -6,4 C 85 % 1017,4 hPa 0,0 l/m 0,4 km/h (0 Bft) N-NO 31 0 min 0,000 mm 0,0 UV-I 18 W/m -8,5 C -6,4 C 1,6 km/h (1 Bft) 97,46 %
19.01.2016 16:10 -6,4 C 85 % 1017,5 hPa 0,0 l/m 0,8 km/h (0 Bft) N-NO 31 0 min 0,000 mm 0,0 UV-I 15 W/m -8,5 C -6,4 C 1,6 km/h (1 Bft) 98,39 %
19.01.2016 16:15 -6,4 C 85 % 1017,5 hPa 0,0 l/m 1,4 km/h (1 Bft) N-NO 31 0 min 0,000 mm 0,0 UV-I 15 W/m -8,5 C -6,4 C 3,2 km/h (1 Bft) 96,58 %
19.01.2016 16:20 -6,3 C 86 % 1017,5 hPa 0,0 l/m 1,0 km/h (0 Bft) N-NO 31 0 min 0,000 mm 0,0 UV-I 12 W/m -8,2 C -6,3 C 3,2 km/h (1 Bft) 97,46 %
19.01.2016 16:25 -6,3 C 85 % 1017,5 hPa 0,0 l/m 1,7 km/h (1 Bft) N-NO 31 0 min 0,000 mm 0,0 UV-I 8 W/m -8,4 C -6,3 C 4,8 km/h (1 Bft) 97,44 %
19.01.2016 16:30 -6,3 C 85 % 1017,5 hPa 0,0 l/m 0,6 km/h (0 Bft) N-NO 31 0 min 0,000 mm 0,0 UV-I 6 W/m -8,4 C -6,3 C 3,2 km/h (1 Bft) 94,92 %
19.01.2016 16:35 -6,3 C 85 % 1017,4 hPa 0,0 l/m 1,7 km/h (1 Bft) N-NO 31 0 min 0,000 mm 0,0 UV-I 5 W/m -8,4 C -6,3 C 3,2 km/h (1 Bft) 97,22 %
19.01.2016 16:40 -6,3 C 84 % 1017,4 hPa 0,0 l/m 1,0 km/h (0 Bft) N-NO 31 0 min 0,000 mm 0,0 UV-I 2 W/m -8,5 C -6,3 C 3,2 km/h (1 Bft) 95,93 %
19.01.2016 16:45 -6,3 C 84 % 1017,5 hPa 0,0 l/m 0,3 km/h (0 Bft) N-NO 31 0 min 0,000 mm 0,0 UV-I 0 W/m -8,5 C -6,3 C 1,6 km/h (1 Bft) 96,61 %
19.01.2016 16:50 -6,3 C 84 % 1017,5 hPa 0,0 l/m 0,7 km/h (0 Bft) N-NO 31 0 min 0,000 mm 0,0 UV-I 0 W/m -8,5 C -6,3 C 1,6 km/h (1 Bft) 98,31 %
19.01.2016 16:55 -6,3 C 85 % 1017,5 hPa 0,0 l/m 0,1 km/h (0 Bft) N-NO 31 0 min 0,000 mm 0,0 UV-I 0 W/m -8,4 C -6,3 C 1,6 km/h (1 Bft) 100,00 %
19.01.2016 17:00 -6,3 C 84 % 1017,6 hPa 0,0 l/m 0,0 km/h (0 Bft) N-NO 31 0 min 0,000 mm 0,0 UV-I 0 W/m -8,5 C -6,3 C 0,0 km/h (0 Bft) 99,15 %
19.01.2016 17:05 -6,3 C 84 % 1017,5 hPa 0,0 l/m 0,0 km/h (0 Bft) N-NO 31 0 min 0,000 mm 0,0 UV-I 0 W/m -8,5 C -6,3 C 1,6 km/h (1 Bft) 98,29 %
19.01.2016 17:10 -6,3 C 84 % 1017,5 hPa 0,0 l/m 0,0 km/h (0 Bft) N-NO 31 0 min 0,000 mm 0,0 UV-I 0 W/m -8,5 C -6,3 C 0,0 km/h (0 Bft) 100,00 %
19.01.2016 17:15 -6,3 C 84 % 1017,5 hPa 0,0 l/m 0,3 km/h (0 Bft) N-NO 31 0 min 0,000 mm 0,0 UV-I 0 W/m -8,5 C -6,3 C 1,6 km/h (1 Bft) 98,31 %
19.01.2016 17:20 -6,3 C 85 % 1017,5 hPa 0,0 l/m 0,0 km/h (0 Bft) N-NO 31 0 min 0,000 mm 0,0 UV-I 0 W/m -8,4 C -6,3 C 1,6 km/h (1 Bft) 99,15 %
19.01.2016 17:25 -6,2 C 84 % 1017,5 hPa 0,0 l/m 1,7 km/h (1 Bft) NO 51 0 min 0,000 mm 0,0 UV-I 0 W/m -8,4 C -6,2 C 4,8 km/h (1 Bft) 99,06 %
19.01.2016 17:30 -6,2 C 85 % 1017,5 hPa 0,0 l/m 3,2 km/h (1 Bft) O-NO 64 0 min 0,000 mm 0,0 UV-I 0 W/m -8,3 C -6,2 C 4,8 km/h (1 Bft) 98,31 %
19.01.2016 17:35 -6,2 C 85 % 1017,5 hPa 0,0 l/m 2,7 km/h (1 Bft) O-NO 71 0 min 0,000 mm 0,0 UV-I 0 W/m -8,3 C -6,2 C 4,8 km/h (1 Bft) 99,19 %
19.01.2016 17:40 -6,3 C 85 % 1017,6 hPa 0,0 l/m 2,5 km/h (1 Bft) O 95 0 min 0,000 mm 0,0 UV-I 0 W/m -8,4 C -6,3 C 4,8 km/h (1 Bft) 97,46 %
19.01.2016 17:45 -6,2 C 85 % 1017,6 hPa 0,0 l/m 1,7 km/h (1 Bft) O 94 0 min 0,000 mm 0,0 UV-I 0 W/m -8,3 C -6,2 C 3,2 km/h (1 Bft) 100,00 %
19.01.2016 17:50 -6,3 C 85 % 1017,6 hPa 0,0 l/m 3,3 km/h (1 Bft) O 88 0 min 0,000 mm 0,0 UV-I 0 W/m -8,4 C -6,3 C 4,8 km/h (1 Bft) 98,31 %
19.01.2016 17:55 -6,3 C 85 % 1017,5 hPa 0,0 l/m 3,5 km/h (1 Bft) O-NO 76 0 min 0,000 mm 0,0 UV-I 0 W/m -8,4 C -6,3 C 6,4 km/h (2 Bft) 99,08 %
19.01.2016 18:00 -6,3 C 85 % 1017,5 hPa 0,0 l/m 4,1 km/h (1 Bft) O-NO 75 0 min 0,000 mm 0,0 UV-I 0 W/m -8,4 C -6,3 C 6,4 km/h (2 Bft) 100,00 %
19.01.2016 18:05 -6,4 C 85 % 1017,6 hPa 0,0 l/m 3,4 km/h (1 Bft) O-NO 57 0 min 0,000 mm 0,0 UV-I 0 W/m -8,5 C -6,4 C 6,4 km/h (2 Bft) 98,31 %
19.01.2016 18:10 -6,3 C 85 % 1017,7 hPa 0,0 l/m 1,4 km/h (1 Bft) O-NO 57 0 min 0,000 mm 0,0 UV-I 0 W/m -8,4 C -6,3 C 4,8 km/h (1 Bft) 97,46 %
19.01.2016 18:15 -6,3 C 85 % 1017,8 hPa 0,0 l/m 2,1 km/h (1 Bft) O-NO 57 0 min 0,000 mm 0,0 UV-I 0 W/m -8,4 C -6,3 C 3,2 km/h (1 Bft) 95,83 %
19.01.2016 18:20 -6,3 C 86 % 1017,8 hPa 0,0 l/m 1,5 km/h (1 Bft) O 84 0 min 0,000 mm 0,0 UV-I 0 W/m -8,2 C -6,3 C 3,2 km/h (1 Bft) 95,04 %
19.01.2016 18:25 -6,3 C 86 % 1017,6 hPa 0,0 l/m 1,8 km/h (1 Bft) O 84 0 min 0,000 mm 0,0 UV-I 0 W/m -8,2 C -6,3 C 4,8 km/h (1 Bft) 97,25 %
19.01.2016 18:30 -6,3 C 86 % 1017,7 hPa 0,0 l/m 1,2 km/h (1 Bft) O 84 0 min 0,000 mm 0,0 UV-I 0 W/m -8,2 C -6,3 C 3,2 km/h (1 Bft) 96,58 %
19.01.2016 18:35 -6,3 C 86 % 1017,7 hPa 0,0 l/m 0,4 km/h (0 Bft) O 84 0 min 0,000 mm 0,0 UV-I 0 W/m -8,2 C -6,3 C 3,2 km/h (1 Bft) 97,46 %
19.01.2016 18:40 -6,3 C 86 % 1017,8 hPa 0,0 l/m 0,4 km/h (0 Bft) O 84 0 min 0,000 mm 0,0 UV-I 0 W/m -8,2 C -6,3 C 1,6 km/h (1 Bft) 97,56 %
19.01.2016 18:45 -6,3 C 86 % 1017,8 hPa 0,0 l/m 1,0 km/h (0 Bft) O 84 0 min 0,000 mm 0,0 UV-I 0 W/m -8,2 C -6,3 C 3,2 km/h (1 Bft) 97,46 %
19.01.2016 18:50 -6,3 C 86 % 1017,7 hPa 0,0 l/m 1,3 km/h (1 Bft) SO 130 0 min 0,000 mm 0,0 UV-I 0 W/m -8,2 C -6,3 C 3,2 km/h (1 Bft) 100,00 %
19.01.2016 18:55 -6,3 C 86 % 1017,7 hPa 0,0 l/m 1,1 km/h (1 Bft) SO 130 0 min 0,000 mm 0,0 UV-I 0 W/m -8,2 C -6,3 C 3,2 km/h (1 Bft) 99,08 %
19.01.2016 19:00 -6,3 C 87 % 1017,8 hPa 0,0 l/m 1,6 km/h (1 Bft) SO 130 0 min 0,000 mm 0,0 UV-I 0 W/m -8,1 C -6,3 C 3,2 km/h (1 Bft) 100,00 %
19.01.2016 19:05 -6,3 C 86 % 1017,8 hPa 0,0 l/m 2,7 km/h (1 Bft) O-SO 107 0 min 0,000 mm 0,0 UV-I 0 W/m -8,2 C -6,3 C 4,8 km/h (1 Bft) 99,15 %
19.01.2016 19:10 -6,3 C 86 % 1017,7 hPa 0,0 l/m 3,4 km/h (1 Bft) O-NO 63 0 min 0,000 mm 0,0 UV-I 0 W/m -8,2 C -6,3 C 6,4 km/h (2 Bft) 98,31 %
19.01.2016 19:15 -6,3 C 86 % 1017,6 hPa 0,0 l/m 3,8 km/h (1 Bft) O-NO 67 0 min 0,000 mm 0,0 UV-I 0 W/m -8,2 C -6,3 C 6,4 km/h (2 Bft) 98,31 %
19.01.2016 19:20 -6,3 C 87 % 1017,7 hPa 0,0 l/m 2,4 km/h (1 Bft) O-NO 67 0 min 0,000 mm 0,0 UV-I 0 W/m -8,1 C -6,3 C 6,4 km/h (2 Bft) 97,48 %
19.01.2016 19:25 -6,4 C 86 % 1017,8 hPa 0,0 l/m 1,7 km/h (1 Bft) O-NO 67 0 min 0,000 mm 0,0 UV-I 0 W/m -8,3 C -6,4 C 4,8 km/h (1 Bft) 100,00 %
19.01.2016 19:30 -6,3 C 86 % 1017,9 hPa 0,0 l/m 0,2 km/h (0 Bft) O-NO 67 0 min 0,000 mm 0,0 UV-I 0 W/m -8,2 C -6,3 C 1,6 km/h (1 Bft) 99,15 %
19.01.2016 19:35 -6,4 C 86 % 1017,8 hPa 0,0 l/m 1,5 km/h (1 Bft) O-NO 67 0 min 0,000 mm 0,0 UV-I 0 W/m -8,3 C -6,4 C 3,2 km/h (1 Bft) 100,00 %
19.01.2016 19:40 -6,3 C 86 % 1017,7 hPa 0,0 l/m 1,7 km/h (1 Bft) O-SO 119 0 min 0,000 mm 0,0 UV-I 0 W/m -8,2 C -6,3 C 3,2 km/h (1 Bft) 98,31 %
19.01.2016 19:45 -6,3 C 87 % 1017,9 hPa 0,0 l/m 1,8 km/h (1 Bft) O-SO 119 0 min 0,000 mm 0,0 UV-I 0 W/m -8,1 C -6,3 C 3,2 km/h (1 Bft) 100,00 %
19.01.2016 19:50 -6,3 C 87 % 1018,0 hPa 0,0 l/m 0,1 km/h (0 Bft) O-SO 119 0 min 0,000 mm 0,0 UV-I 0 W/m -8,1 C -6,3 C 1,6 km/h (1 Bft) 100,00 %
19.01.2016 19:55 -6,3 C 87 % 1018,0 hPa 0,0 l/m 0,1 km/h (0 Bft) O-SO 119 0 min 0,000 mm 0,0 UV-I 0 W/m -8,1 C -6,3 C 1,6 km/h (1 Bft) 100,00 %
19.01.2016 20:00 -6,3 C 86 % 1017,9 hPa 0,0 l/m 0,0 km/h (0 Bft) O-SO 119 0 min 0,000 mm 0,0 UV-I 0 W/m -8,2 C -6,3 C 0,0 km/h (0 Bft) 98,20 %
19.01.2016 20:05 -6,3 C 86 % 1017,9 hPa 0,0 l/m 0,0 km/h (0 Bft) O-SO 119 0 min 0,000 mm 0,0 UV-I 0 W/m -8,2 C -6,3 C 0,0 km/h (0 Bft) 99,15 %
19.01.2016 20:10 -6,3 C 86 % 1017,8 hPa 0,0 l/m 0,1 km/h (0 Bft) O-SO 119 0 min 0,000 mm 0,0 UV-I 0 W/m -8,2 C -6,3 C 1,6 km/h (1 Bft) 99,17 %
19.01.2016 20:15 -6,3 C 87 % 1017,8 hPa 0,0 l/m 1,5 km/h (1 Bft) O-SO 119 0 min 0,000 mm 0,0 UV-I 0 W/m -8,1 C -6,3 C 3,2 km/h (1 Bft) 95,76 %
19.01.2016 20:20 -6,3 C 87 % 1017,9 hPa 0,0 l/m 0,5 km/h (0 Bft) O-SO 119 0 min 0,000 mm 0,0 UV-I 0 W/m -8,1 C -6,3 C 1,6 km/h (1 Bft) 98,31 %
19.01.2016 20:25 -6,3 C 87 % 1018,0 hPa 0,0 l/m 0,8 km/h (0 Bft) O-SO 119 0 min 0,000 mm 0,0 UV-I 0 W/m -8,1 C -6,3 C 3,2 km/h (1 Bft) 96,30 %
19.01.2016 20:30 -6,3 C 86 % 1017,9 hPa 0,0 l/m 0,9 km/h (0 Bft) O-SO 119 0 min 0,000 mm 0,0 UV-I 0 W/m -8,2 C -6,3 C 3,2 km/h (1 Bft) 95,76 %
19.01.2016 20:35 -6,3 C 86 % 1017,9 hPa 0,0 l/m 0,4 km/h (0 Bft) O-SO 119 0 min 0,000 mm 0,0 UV-I 0 W/m -8,2 C -6,3 C 3,2 km/h (1 Bft) 97,56 %
19.01.2016 20:40 -6,3 C 87 % 1018,0 hPa 0,0 l/m 0,8 km/h (0 Bft) O-SO 119 0 min 0,000 mm 0,0 UV-I 0 W/m -8,1 C -6,3 C 3,2 km/h (1 Bft) 98,29 %
19.01.2016 20:45 -6,3 C 87 % 1018,0 hPa 0,0 l/m 2,0 km/h (1 Bft) O-SO 119 0 min 0,000 mm 0,0 UV-I 0 W/m -8,1 C -6,3 C 3,2 km/h (1 Bft) 96,69 %
19.01.2016 20:50 -6,4 C 87 % 1018,0 hPa 0,0 l/m 2,0 km/h (1 Bft) O-SO 119 0 min 0,000 mm 0,0 UV-I 0 W/m -8,2 C -6,4 C 3,2 km/h (1 Bft) 96,23 %
19.01.2016 20:55 -6,4 C 87 % 1018,0 hPa 0,0 l/m 1,2 km/h (1 Bft) O-SO 119 0 min 0,000 mm 0,0 UV-I 0 W/m -8,2 C -6,4 C 3,2 km/h (1 Bft) 99,15 %
19.01.2016 21:00 -6,3 C 87 % 1018,2 hPa 0,0 l/m 1,1 km/h (1 Bft) O-SO 119 0 min 0,000 mm 0,0 UV-I 0 W/m -8,1 C -6,3 C 3,2 km/h (1 Bft) 98,35 %
19.01.2016 21:05 -6,3 C 87 % 1018,0 hPa 0,0 l/m 0,9 km/h (0 Bft) O-SO 119 0 min 0,000 mm 0,0 UV-I 0 W/m -8,1 C -6,3 C 3,2 km/h (1 Bft) 97,56 %
19.01.2016 21:10 -6,3 C 88 % 1018,0 hPa 0,0 l/m 1,8 km/h (1 Bft) O-SO 119 0 min 0,000 mm 0,0 UV-I 0 W/m -8,0 C -6,3 C 3,2 km/h (1 Bft) 97,25 %
19.01.2016 21:15 -6,3 C 87 % 1018,0 hPa 0,0 l/m 0,5 km/h (0 Bft) O-SO 119 0 min 0,000 mm 0,0 UV-I 0 W/m -8,1 C -6,3 C 1,6 km/h (1 Bft) 100,00 %
19.01.2016 21:20 -6,2 C 87 % 1018,0 hPa 0,0 l/m 0,7 km/h (0 Bft) O-SO 119 0 min 0,000 mm 0,0 UV-I 0 W/m -8,0 C -6,2 C 3,2 km/h (1 Bft) 100,00 %
19.01.2016 21:25 -6,3 C 87 % 1017,9 hPa 0,0 l/m 0,7 km/h (0 Bft) O-SO 119 0 min 0,000 mm 0,0 UV-I 0 W/m -8,1 C -6,3 C 3,2 km/h (1 Bft) 100,00 %
19.01.2016 21:30 -6,2 C 88 % 1018,0 hPa 0,0 l/m 0,1 km/h (0 Bft) O-SO 119 0 min 0,000 mm 0,0 UV-I 0 W/m -7,9 C -6,2 C 1,6 km/h (1 Bft) 99,17 %
19.01.2016 21:35 -6,2 C 87 % 1018,0 hPa 0,0 l/m 0,2 km/h (0 Bft) O-SO 119 0 min 0,000 mm 0,0 UV-I 0 W/m -8,0 C -6,2 C 1,6 km/h (1 Bft) 99,08 %
19.01.2016 21:40 -6,3 C 87 % 1018,0 hPa 0,0 l/m 0,0 km/h (0 Bft) O-SO 119 0 min 0,000 mm 0,0 UV-I 0 W/m -8,1 C -6,3 C 0,0 km/h (0 Bft) 100,00 %
19.01.2016 21:45 -6,2 C 87 % 1018,0 hPa 0,0 l/m 0,0 km/h (0 Bft) O-SO 119 0 min 0,000 mm 0,0 UV-I 0 W/m -8,0 C -6,2 C 0,0 km/h (0 Bft) 98,29 %
19.01.2016 21:50 -6,2 C 87 % 1018,0 hPa 0,0 l/m 0,1 km/h (0 Bft) O-SO 119 0 min 0,000 mm 0,0 UV-I 0 W/m -8,0 C -6,2 C 1,6 km/h (1 Bft) 100,00 %
19.01.2016 21:55 -6,2 C 87 % 1017,9 hPa 0,0 l/m 0,8 km/h (0 Bft) O-SO 119 0 min 0,000 mm 0,0 UV-I 0 W/m -8,0 C -6,2 C 3,2 km/h (1 Bft) 100,00 %
19.01.2016 22:00 -6,2 C 87 % 1018,1 hPa 0,0 l/m 0,5 km/h (0 Bft) O-SO 119 0 min 0,000 mm 0,0 UV-I 0 W/m -8,0 C -6,2 C 1,6 km/h (1 Bft) 100,00 %
19.01.2016 22:05 -6,2 C 88 % 1018,0 hPa 0,0 l/m 0,0 km/h (0 Bft) O-SO 119 0 min 0,000 mm 0,0 UV-I 0 W/m -7,9 C -6,2 C 1,6 km/h (1 Bft) 99,15 %
19.01.2016 22:10 -6,2 C 88 % 1018,0 hPa 0,0 l/m 0,0 km/h (0 Bft) O-SO 119 0 min 0,000 mm 0,0 UV-I 0 W/m -7,9 C -6,2 C 0,0 km/h (0 Bft) 99,17 %
19.01.2016 22:15 -6,2 C 87 % 1017,9 hPa 0,0 l/m 0,0 km/h (0 Bft) O-SO 119 0 min 0,000 mm 0,0 UV-I 0 W/m -8,0 C -6,2 C 0,0 km/h (0 Bft) 95,28 %
19.01.2016 22:20 -6,1 C 87 % 1018,0 hPa 0,0 l/m 0,0 km/h (0 Bft) O-SO 119 0 min 0,000 mm 0,0 UV-I 0 W/m -7,9 C -6,1 C 0,0 km/h (0 Bft) 96,61 %
19.01.2016 22:25 -6,1 C 88 % 1018,0 hPa 0,0 l/m 0,0 km/h (0 Bft) O-SO 119 0 min 0,000 mm 0,0 UV-I 0 W/m -7,8 C -6,1 C 1,6 km/h (1 Bft) 96,58 %
19.01.2016 22:30 -6,1 C 88 % 1018,2 hPa 0,0 l/m 0,0 km/h (0 Bft) O-SO 119 0 min 0,000 mm 0,0 UV-I 0 W/m -7,8 C -6,1 C 1,6 km/h (1 Bft) 96,61 %
19.01.2016 22:35 -6,1 C 88 % 1018,2 hPa 0,0 l/m 0,4 km/h (0 Bft) O-SO 119 0 min 0,000 mm 0,0 UV-I 0 W/m -7,8 C -6,1 C 3,2 km/h (1 Bft) 97,46 %
19.01.2016 22:40 -6,1 C 88 % 1018,2 hPa 0,0 l/m 0,3 km/h (0 Bft) O-SO 119 0 min 0,000 mm 0,0 UV-I 0 W/m -7,8 C -6,1 C 3,2 km/h (1 Bft) 95,83 %
19.01.2016 22:45 -6,1 C 88 % 1018,2 hPa 0,0 l/m 0,1 km/h (0 Bft) O-SO 119 0 min 0,000 mm 0,0 UV-I 0 W/m -7,8 C -6,1 C 1,6 km/h (1 Bft) 96,69 %
19.01.2016 22:50 -6,2 C 88 % 1018,0 hPa 0,0 l/m 0,3 km/h (0 Bft) O-SO 119 0 min 0,000 mm 0,0 UV-I 0 W/m -7,9 C -6,2 C 1,6 km/h (1 Bft) 97,25 %
19.01.2016 22:55 -6,2 C 88 % 1018,0 hPa 0,0 l/m 0,8 km/h (0 Bft) O-SO 119 0 min 0,000 mm 0,0 UV-I 0 W/m -7,9 C -6,2 C 3,2 km/h (1 Bft) 96,67 %
19.01.2016 23:00 -6,2 C 88 % 1018,0 hPa 0,0 l/m 0,8 km/h (0 Bft) O-SO 119 0 min 0,000 mm 0,0 UV-I 0 W/m -7,9 C -6,2 C 3,2 km/h (1 Bft) 98,31 %
19.01.2016 23:05 -6,2 C 89 % 1018,0 hPa 0,0 l/m 0,6 km/h (0 Bft) O-SO 119 0 min 0,000 mm 0,0 UV-I 0 W/m -7,7 C -6,2 C 3,2 km/h (1 Bft) 99,17 %
19.01.2016 23:10 -6,2 C 89 % 1018,0 hPa 0,0 l/m 0,1 km/h (0 Bft) O-SO 119 0 min 0,000 mm 0,0 UV-I 0 W/m -7,7 C -6,2 C 1,6 km/h (1 Bft) 98,31 %
19.01.2016 23:15 -6,2 C 89 % 1018,1 hPa 0,0 l/m 0,4 km/h (0 Bft) O-SO 119 0 min 0,000 mm 0,0 UV-I 0 W/m -7,7 C -6,2 C 1,6 km/h (1 Bft) 98,31 %
19.01.2016 23:20 -6,2 C 89 % 1018,1 hPa 0,0 l/m 0,1 km/h (0 Bft) O-SO 119 0 min 0,000 mm 0,0 UV-I 0 W/m -7,7 C -6,2 C 1,6 km/h (1 Bft) 98,15 %
19.01.2016 23:25 -6,2 C 89 % 1018,0 hPa 0,0 l/m 0,0 km/h (0 Bft) O-SO 119 0 min 0,000 mm 0,0 UV-I 0 W/m -7,7 C -6,2 C 1,6 km/h (1 Bft) 100,00 %
19.01.2016 23:30 -6,1 C 88 % 1017,9 hPa 0,0 l/m 0,0 km/h (0 Bft) O-SO 119 0 min 0,000 mm 0,0 UV-I 0 W/m -7,8 C -6,1 C 0,0 km/h (0 Bft) 99,15 %
19.01.2016 23:35 -6,1 C 88 % 1017,9 hPa 0,0 l/m 0,0 km/h (0 Bft) O-SO 119 0 min 0,000 mm 0,0 UV-I 0 W/m -7,8 C -6,1 C 1,6 km/h (1 Bft) 99,15 %
19.01.2016 23:40 -6,1 C 88 % 1017,9 hPa 0,0 l/m 0,0 km/h (0 Bft) O-SO 119 0 min 0,000 mm 0,0 UV-I 0 W/m -7,8 C -6,1 C 0,0 km/h (0 Bft) 99,15 %
19.01.2016 23:45 -6,1 C 88 % 1017,9 hPa 0,0 l/m 0,1 km/h (0 Bft) O-SO 119 0 min 0,000 mm 0,0 UV-I 0 W/m -7,8 C -6,1 C 1,6 km/h (1 Bft) 99,15 %
19.01.2016 23:50 -6,1 C 88 % 1018,0 hPa 0,0 l/m 0,4 km/h (0 Bft) O-SO 119 0 min 0,000 mm 0,0 UV-I 0 W/m -7,8 C -6,1 C 1,6 km/h (1 Bft) 99,15 %
19.01.2016 23:55 -6,1 C 88 % 1017,9 hPa 0,0 l/m 0,4 km/h (0 Bft) O-SO 119 0 min 0,000 mm 0,0 UV-I 0 W/m -7,8 C -6,1 C 1,6 km/h (1 Bft) 97,46 %
_ Min-Zeit 07:10 14:20 15:35 - 03:20 - - - - - - 07:10 07:10 03:20 14:35
Minimum _ -12,2 C 84 % 1017,1 hPa - 0,0 km/h (0 Bft) - - - - - - -13,4 C -12,2 C 0,0 km/h (0 Bft) 94,07 %
_ Max-Zeit 22:20 00:00 11:40 00:00 12:55 - - 08:20 11:00 12:15 12:20 23:05 22:20 12:20 00:15
Maximum _ -6,1 C 93 % 1018,7 hPa 0,0 l/m 8,1 km/h
O-NO (2 Bft)
- - 5 min 0,026 mm 0,5 UV-I 192 W/m -7,7 C -6,1 C 14,5 km/h
O-NO (3 Bft)
100,00 %
Durchschnitt _ -8,4 C 89 % 1017,8 hPa #0,0 l/m 2,2 km/h (1 Bft) O-NO - #15 min. #0,152 mm 0,5 UV-I 87 W/m -9,9 C -8,5 C 4,5 km/h (1 Bft) 98,36 %